Regional Weather Roundup
Issued by NWS

Home | Current Version | Previous Version | Text Only | Print | Product List | Glossary On
Versions: 1 2 3 4 5 6 7 8 9 10 11 12 13 14 15 16 17 18 19 20 21 22 23 24 25 26 27 28 29 30 31 32 33 34 35 36 37 38 39 40 41 42 43 44 45 46 47 48 49 50
000
ASUS45 KABQ 200010
RWRNM
WEATHER ROUNDUP FOR NEW MEXICO
NATIONAL WEATHER SERVICE ALBUQUERQUE NM
600 PM MDT SAT APR 19 2014

NOTE: "FAIR" MEANS FEW OR NO CLOUDS BELOW 12,000 FEET AGL WITH NO
       SIGNIFICANT WEATHER OR OBSTRUCTIONS TO VISION.

      THIS PRODUCT IS RELEASED AS TWO VERSIONS.  ONE VERSION NEAR
      THE TOP OF THE HOUR CONTAINING PRELIMINARY DATA FROM ALBUQUERQUE
      AND OTHER STATIONS.  A FINAL VERSION WITH ADDITIONAL DATA IS
      ISSUED ABOUT 10 MINUTES AFTER THE HOUR.

NMZ501-503-504-510>518-200100-
NORTHWEST PLATEAU/NORTHCENTRAL MOUNTAINS

CITY           SKY/WX    TMP DP  RH WIND       PRES   REMARKS
FARMINGTON     SUNNY     68  29  23 VRB5      30.02S
6HR MIN TEMP:  62; 6HR MAX TEMP:  69;

LOS ALAMOS     CLOUDY    47  43  83 S5        30.15S
SANTA FE       CLOUDY    52  42  69 N3        30.11S
6HR MIN TEMP:  52; 6HR MAX TEMP:  66; 6HR PCP:  0.01;

TAOS           CLOUDY    54  36  50 SW18      30.13R
ANGEL FIRE     CLOUDY    47  37  68 S10G20    30.18R

$$
NMZ402-403-502-505>509-200100-
WESTCENTRAL MOUNTAINS/SOUTHWEST MOUNTAINS

CITY           SKY/WX    TMP DP  RH WIND       PRES   REMARKS
GALLUP         CLOUDY    61  29  29 SW10      30.10R
6HR MIN TEMP:  59; 6HR MAX TEMP:  64; 6HR PCP: TRACE;

GRANTS         CLOUDY    54  36  49 W5        30.13R
SILVER CITY    CLOUDY    59  37  44 W13       30.12S

$$
NMZ407-409-411-412-200100-
SOUTHERN DESERTS

CITY           SKY/WX    TMP DP  RH WIND       PRES   REMARKS
LORDSBURG      FAIR      57  45  62 N5        30.08R
DEMING         CLOUDY    61  46  57 NW6       30.07R
6HR MIN TEMP:  58; 6HR MAX TEMP:  72; 6HR PCP:  0.02;

LAS CRUCES     CLOUDY    62  42  47 W13G23    30.09R
HOLLOMAN AFB   CLOUDY    67  47  49 S12       30.04R
ALAMOGORDO     CLOUDY    63  45  51 S8        30.07R
T OR C         CLOUDY    62  42  47 SW14G24   30.06R
6HR MIN TEMP:  57; 6HR MAX TEMP:  66; 6HR PCP: TRACE;


$$
NMZ519>523-200100-
CENTRAL VALLEYS/CENTRAL HIGHLANDS

CITY           SKY/WX    TMP DP  RH WIND       PRES   REMARKS
ALBUQUERQUE    PTSUNNY   60  42  51 SW7       30.08R
6HR MIN TEMP:  55; 6HR MAX TEMP:  61; 6HR PCP: TRACE;

DOUBLE EAGLE   PTSUNNY   57  39  51 SE5       30.10R
MORIARTY ARPT  CLOUDY    53  42  65 CALM      30.11R
6HR MIN TEMP:  47; 6HR MAX TEMP:  60; 6HR PCP:  0.03;

CLINES CORNERS CLOUDY    51  42  71 E5        30.11R
6HR MIN TEMP:  44; 6HR MAX TEMP:  56; 6HR PCP:  0.18;

BELEN          FAIR      61  40  46 CALM      30.08R
6HR MIN TEMP:  53; 6HR MAX TEMP:  62;

SOCORRO        FAIR      63  44  50 CALM      30.05S
6HR MIN TEMP:  50; 6HR MAX TEMP:  64; 6HR PCP:  0.02;


$$
NMZ524>526-539-540-200100-
SOUTHCENTRAL MOUNTAINS

CITY           SKY/WX    TMP DP  RH WIND       PRES   REMARKS
RUIDOSO        PTSUNNY   54  45  71 SE14      30.16R

$$
NMZ527>531-200100-
NORTHEAST HIGHLANDS/NORTHEAST PLAINS

CITY           SKY/WX    TMP DP  RH WIND       PRES   REMARKS
LAS VEGAS      CLOUDY    47  43  86 SW7       30.12F
6HR MIN TEMP:  47; 6HR MAX TEMP:  66; 6HR PCP:  0.01;

RATON          CLOUDY    56  42  59 S18G28    30.06R
6HR MIN TEMP:  56; 6HR MAX TEMP:  72;

CLAYTON        CLOUDY    63  42  46 SW16      30.02F
6HR MIN TEMP:  60; 6HR MAX TEMP:  76; 6HR PCP: TRACE;


$$
NMZ532>537-200100-
EASTCENTRAL PLAINS

CITY           SKY/WX    TMP DP  RH WIND       PRES   REMARKS
TUCUMCARI      CLOUDY    61  53  75 SW3       30.02F
6HR MIN TEMP:  60; 6HR MAX TEMP:  78; 6HR PCP:  0.03;

CANNON AFB     MOSUNNY   58  52  80 SE8       30.05F
6HR MIN TEMP:  54; 6HR MAX TEMP:  64; 6HR PCP:  0.03;

CLOVIS AIRPORT CLOUDY    57  50  77 SE7       30.07F

$$
NMZ028-029-538-200100-
SOUTHEAST PLAINS

CITY           SKY/WX    TMP DP  RH WIND       PRES   REMARKS
ROSWELL        CLOUDY    65  52  62 CALM      30.02F
6HR MIN TEMP:  57; 6HR MAX TEMP:  67; 6HR PCP:  0.02;

ARTESIA        CLOUDY    64  54  68 SE5       30.04S
CARLSBAD       LGT RAIN  65  55  70 E3        30.03R
6HR MIN TEMP:  57; 6HR MAX TEMP:  68; 6HR PCP:  0.19;

HOBBS          CLOUDY    63  54  72 E10       30.08R


$$



USA.gov is the U.S. government's official web portal to all federal, state and local government web resources and services.